Rangoon, Myanmar

10:27 PM +0630 on March 28, 2017 (GMT +0630)
Golden Valley | | Change Station

Elev 105 ft 16.82 °N, 96.14 °E | Updated 60 seconds ago

Clear
Clear
81.1 °F
Feels Like 82 °F
N
0.0
Wind Variable Wind from SE
Gusts 0.0 mph

Today
High -- | Low -- °F
--% Chance of Precip.
Yesterday
High -- | Low -- °F
Precip. -- in
Pressure 29.92 in
Visibility 4.3 miles
Clouds
Heat Index 82 °F
Dew Point 61 °F
Humidity 51%
Rainfall 0.00 in
Snow Depth Not available.
6:03 AM 6:17 PM
New Moon, 0% visible
METAR VYYY 281530Z 19005KT 7000 NSC 28/20 Q1013
Pressure 29.92 in
Visibility 4.3 miles
Clouds
Heat Index 82 °F
Dew Point 61 °F
Humidity 51%
Rainfall 0.00 in
Snow Depth Not available.
6:03 AM 6:17 PM
New Moon, 0% visible
METAR VYYY 281530Z 19005KT 7000 NSC 28/20 Q1013

Get Severe Weather Alerts

Thanks for signing up!

Be on the lookout for a verification email in your inbox.

You'll start receiving the daily forecast at 8 AM.

×

10-Day Weather Forecast

No radar image for this location.
×

Almanac

Astronomy

Mar. 28, 2017 Rise Set
Actual Time
Civil Twilight
Nautical Twilight
Astronomical Twilight
Moon
Length of Visible Light
Length of Day
Tomorrow will be .
, % of the Moon is Illuminated

Today's Extremes

Country Highs Country Lows

Community

WunderPhotos

Upload Photos

1,962,540 photos uploaded!

WunderBlog® & News

Nearby

Air Quality

  Air Quality AQ Index Pollutant
Not available.

Snow Depth

Station Depth Elevation

Earthquake Activity

City Distance Mag. Time & Date
Minimum magnitude displayed is 2.5.

Earthquake Activity

City Distance Mag. Time & Date
Minimum magnitude displayed is 2.5.

Coastal Water Temperatures

Place Temperature

Stations

Nearby Weather Stations

Station Location Temp. Windchill Dew Point Humidity Wind Precip. Elev Updated Type